Weather History for Lexington, KY

Change the Weather History Date:

Monday, March 4, 2013

  Actual Average Record
Temperature  
Mean Temperature 33 °F 42 °F  
Max Temperature 45 °F 51 °F 81 °F (1976)
Min Temperature 21 °F 32 °F -1 °F (1873)
Degree Days  
Heating Degree Days 32 23  
Month to date heating degree days 134 95  
Since 1 July heating degree days 3642 3666  
Cooling Degree Days 0 0  
Month to date cooling degree days 0 0  
Year to date cooling degree days 0 0  
Moisture  
Dew Point 20 °F    
Average Humidity 69    
Maximum Humidity 100    
Minimum Humidity 37    
Precipitation  
Precipitation T in 0.11 in 3.54 in (1964)
Month to date precipitation 0.09 0.47  
Year to date precipitation 6.07 6.87  
Snow  
Snow 0.00 in 0.00 in 9.20 in (1917)
Month to date snowfall 0.7 0.2  
Since 1 July snowfall 9.2 11.5  
Snow Depth 0.00 in    
Sea Level Pressure  
Sea Level Pressure 30.10 in    
Wind  
Wind Speed 7 mph (SE)    
Max Wind Speed 15 mph    
Max Gust Speed 20 mph    
Visibility 10 miles    
Events      
T = Trace of Precipitation, MM = Missing Value Source: NWS Daily Summary

Daily Weather History Graph

Daily Weather History Graph

Search for Another Location

Airport:

Trip Planner

Search our weather history database for the weather conditions in past years. The results will help you decide how hot, cold, wet, or windy it might be!

Date:

Astronomy

Mar. 04, 2013 Rise Set
Actual Time 7:05 AM EST 6:35 PM EST
Civil Twilight 6:39 AM EST 7:01 PM EST
Nautical Twilight 6:08 AM EST 7:32 PM EST
Astronomical Twilight 5:38 AM EST 8:02 PM EST
Moon 1:10 AM EST (3/4) 11:20 AM EST (3/4)
Length of Visible Light 12h 22m
Length of Day
11h 29m
Waning Gibbous, 52% of the Moon is Illuminated
Mar 4
Waning Gibbous
Mar 4
Last Quarter
Mar 11
New
Mar 19
First Quarter
Mar 27
Full

Hourly Weather History & Observations

Time (EST) Temp. Windchill Dew Point Humidity Pressure Visibility Wind Dir Wind Speed Gust Speed Precip Events Conditions
12:54 AM 21.9 °F - 19.0 °F 89% 30.14 in 10.0 mi Calm Calm - N/A   Clear
1:54 AM 1.0 °F -6.7 °F - N/A% 30.16 in 9.0 mi SE 3.5 mph - N/A   Clear
2:54 AM 1.0 °F -6.7 °F - N/A% 30.17 in 7.0 mi South 3.5 mph - N/A   Clear
3:54 AM - - - N/A% 30.12 in 10.0 mi SE 4.6 mph - N/A   Clear
4:54 AM - - - N/A% 30.13 in 8.0 mi SE 3.5 mph - N/A   Clear
5:54 AM - - - N/A% 30.14 in 10.0 mi SSE 5.8 mph - N/A   Clear
6:54 AM - - - N/A% 30.15 in 10.0 mi SE 5.8 mph - N/A   Clear
7:54 AM - - - N/A% 30.15 in 10.0 mi SE 6.9 mph - N/A   Clear
8:54 AM 1.0 °F -12.9 °F 1.0 °F 100% 30.20 in 10.0 mi ESE 8.1 mph - N/A   Clear
9:54 AM 1.0 °F -14.0 °F - N/A% 30.20 in 10.0 mi SSE 9.2 mph - N/A   Clear
10:54 AM 34.0 °F 27.2 °F 19.9 °F 56% 30.17 in 10.0 mi SE 8.1 mph - N/A   Clear
11:54 AM 37.9 °F 32.1 °F 19.0 °F 47% 30.16 in 10.0 mi SE 8.1 mph - N/A   Clear
12:54 PM 41.0 °F 36.4 °F 19.9 °F 43% 30.12 in 10.0 mi SSE 6.9 mph - N/A   Clear
1:54 PM 42.1 °F 37.7 °F 19.0 °F 40% 30.10 in 10.0 mi SE 6.9 mph - N/A   Scattered Clouds
2:54 PM 44.1 °F 40.8 °F 19.9 °F 38% 30.08 in 10.0 mi SSE 5.8 mph - N/A   Overcast
3:54 PM 44.1 °F 39.0 °F 21.0 °F 40% 30.02 in 10.0 mi SSE 9.2 mph - N/A   Overcast
4:54 PM 43.0 °F 38.2 °F 21.0 °F 42% 30.01 in 10.0 mi SE 8.1 mph - N/A   Overcast
5:54 PM 43.0 °F 38.2 °F 21.9 °F 43% 30.00 in 10.0 mi East 8.1 mph - N/A   Overcast
6:54 PM 42.1 °F 37.1 °F 21.9 °F 45% 29.99 in 10.0 mi ESE 8.1 mph - 0.00 in   Mostly Cloudy
7:54 PM 42.1 °F 36.1 °F 21.9 °F 45% 29.97 in 10.0 mi ESE 10.4 mph - N/A   Overcast
8:54 PM 42.1 °F 37.1 °F 21.9 °F 45% 30.02 in 10.0 mi ESE 8.1 mph - N/A   Overcast
9:54 PM 41.0 °F 36.4 °F 23.0 °F 49% 30.04 in 10.0 mi ESE 6.9 mph - N/A   Overcast
10:54 PM 41.0 °F 36.4 °F 24.1 °F 51% 30.01 in 10.0 mi ESE 6.9 mph - N/A   Overcast
11:54 PM 41.0 °F 34.7 °F 24.1 °F 51% 29.98 in 10.0 mi ESE 10.4 mph - N/A   Overcast